This is the latest recevied weather packets stored in our database for station/object DB0NLS-15. If no packets are shown the sender has not sent any weather packets the latest 10 day(s).
| Time | Temp. | Humidity | Pressure | Rain* | Wind** | Luminosity | Snow |
|---|---|---|---|---|---|---|---|
| 1777433765 | 1.11° C | 70% | 1015.5 hPa | 0 mm | - | - | - |
| 1777433163 | 1.11° C | 70% | 1015.5 hPa | 0 mm | - | - | - |
| 1777432560 | 1.67° C | 69% | 1015.4 hPa | 0 mm | - | - | - |
| 1777431958 | 1.67° C | 68% | 1015.4 hPa | 0 mm | - | - | - |
| 1777431355 | 2.22° C | 67% | 1015.3 hPa | 0 mm | - | - | - |
| 1777430753 | 2.22° C | 68% | 1015.1 hPa | 0 mm | - | - | - |
| 1777430150 | 2.22° C | 67% | 1015.2 hPa | 0 mm | - | - | - |
| 1777429547 | 2.22° C | 67% | 1015.1 hPa | 0 mm | - | - | - |
| 1777428945 | 2.22° C | 68% | 1015 hPa | 0 mm | - | - | - |
| 1777428342 | 2.22° C | 68% | 1014.9 hPa | 0 mm | - | - | - |
| 1777427739 | 2.22° C | 69% | 1014.7 hPa | 0 mm | - | - | - |
| 1777427137 | 2.22° C | 68% | 1014.8 hPa | 0 mm | - | - | - |
| 1777426534 | 2.78° C | 68% | 1014.7 hPa | 0 mm | - | - | - |
| 1777425932 | 2.78° C | 68% | 1014.6 hPa | 0 mm | - | - | - |
| 1777425329 | 2.22° C | 68% | 1014.5 hPa | 0 mm | - | - | - |
| 1777424726 | 2.78° C | 67% | 1014.5 hPa | 0 mm | - | - | - |
| 1777424124 | 2.22° C | 68% | 1014.4 hPa | 0 mm | - | - | - |
| 1777423521 | 2.78° C | 67% | 1014.5 hPa | 0 mm | - | - | - |
| 1777422919 | 2.78° C | 67% | 1014.4 hPa | 0 mm | - | - | - |
| 1777422316 | 2.78° C | 67% | 1014.5 hPa | 0 mm | - | - | - |
| 1777421774 | 2.78° C | 66% | 1014.4 hPa | 0 mm | - | - | - |
| 1777421171 | 2.22° C | 67% | 1014.4 hPa | 0 mm | - | - | - |
| 1777420568 | 1.67° C | 68% | 1014.3 hPa | 0 mm | - | - | - |
| 1777419966 | 1.11° C | 69% | 1014.3 hPa | 0 mm | - | - | - |
| 1777419363 | 1.67° C | 69% | 1014.2 hPa | 0 mm | - | - | - |
* Rain latest hour (hover to see other rain measurements)
** Current wind speed in m/s (hover to see current wind gust speed)